DW8673 Jerrabomberra AU current weather conditions

sailwx.info

Wind from 105

Air temperature 11.1° C
Dewpoint -2.3° C

Last reported at 2016-May-04 08:43 UTC.
Time now 2016-May-05 20:01 UTC

Location: S 35°23' E 149°12'.
View on Google Maps.

See reports from other nearby stations

  
Tides and Currents Weather Stations Pressure Air Temp Water Temp Dewpoint Dewpoint Depression Visibility Wind Speed Wind Dir Waves Ship Positions
date/time (UTC)wind fromknots sea level pressurealtimeterstation pressurevisibilityair tempwater tempwave heightnotes
2016-May-04 08:43 105 11.1
2016-May-04 08:38 180 11.1
2016-May-04 08:33 202 11.1
2016-May-04 08:18 313 0 gusting 1 11.7
2016-May-04 08:13 313 11.7
2016-May-04 08:08 322 0 gusting 1 12.2
2016-May-04 08:03 325 1 gusting 4 12.2
2016-May-04 07:48 340 1 gusting 5 12.8
2016-May-04 07:38 319 2 gusting 4 13.3
2016-May-04 07:18 320 1 gusting 2 13.9
2016-May-04 07:13 336 2 gusting 4 14.4
2016-May-04 07:08 311 3 gusting 6 14.4
2016-May-04 07:03 313 2 gusting 6 15.0
2016-May-04 06:48 332 1 gusting 6 16.7
2016-May-04 06:43 318 3 gusting 6 17.2
2016-May-04 06:38 287 1 gusting 6 17.8
2016-May-04 06:33 299 3 gusting 6 17.8
2016-May-04 06:13 001 2 gusting 6 18.3
2016-May-04 06:08 308 4 gusting 6 18.3
2016-May-04 06:03 310 2 gusting 7 18.3
2016-May-04 05:48 313 5 gusting 8 18.9
2016-May-04 05:43 348 2 gusting 5 18.9
2016-May-04 05:38 356 5 gusting 5 18.9
2016-May-04 05:33 326 2 gusting 5 19.4
2016-May-04 05:18 297 1 gusting 5 19.4
2016-May-04 05:13 316 3 gusting 6 19.4
2016-May-04 05:08 295 3 gusting 6 18.9
2016-May-04 05:03 034 2 gusting 6 18.9
2016-May-04 04:48 334 3 gusting 8 18.9
2016-May-04 04:43 329 3 gusting 6 19.4
2016-May-04 04:38 306 2 gusting 5 19.4
2016-May-04 04:33 337 4 gusting 11 19.4
2016-May-04 04:18 284 3 gusting 7 19.4
2016-May-04 04:13 310 2 gusting 6 20.0
2016-May-04 04:08 331 2 gusting 6 20.0
2016-May-04 04:03 323 5 gusting 8 19.4
2016-May-04 03:48 354 2 gusting 7 20.0
2016-May-04 03:43 336 2 gusting 5 20.0
2016-May-04 03:38 296 2 gusting 6 20.0
2016-May-04 03:18 247 4 gusting 8 20.0
2016-May-04 03:13 328 2 gusting 6 20.0
2016-May-04 03:08 332 4 gusting 6 20.0
2016-May-04 03:03 288 4 gusting 6 20.0
2016-May-04 02:48 298 3 gusting 6 20.0
2016-May-04 02:43 319 3 gusting 7 20.0
2016-May-04 02:38 346 3 gusting 6 20.0
2016-May-04 02:33 270 4 gusting 6 19.4
2016-May-04 02:18 323 2 gusting 5 19.4
2016-May-04 02:13 289 4 gusting 6 19.4
2016-May-04 02:08 322 3 gusting 7 19.4
2016-May-04 02:03 301 2 gusting 6 20.0
2016-May-04 01:48 281 5 gusting 8 19.4
2016-May-04 01:43 289 4 gusting 6 19.4
2016-May-04 01:38 286 4 gusting 11 18.9
2016-May-04 01:33 345 4 gusting 7 18.9
2016-May-04 01:18 293 3 gusting 8 18.9
2016-May-04 01:13 329 4 gusting 6 18.9
2016-May-04 01:08 321 4 gusting 6 18.9
2016-May-04 01:03 315 4 gusting 6 18.9
2016-May-04 00:48 283 3 gusting 8 18.9
2016-May-04 00:38 301 4 gusting 6 18.3
2016-May-04 00:33 335 4 gusting 6 18.3
2016-May-04 00:18 326 2 gusting 6 18.9
2016-May-04 00:08 307 3 gusting 5 18.3
2016-May-04 00:03 284 2 gusting 7 18.3
2016-May-03 23:48 257 4 gusting 6 17.8
2016-May-03 23:43 302 2 gusting 6 17.8
2016-May-03 23:38 269 4 gusting 5 17.8
2016-May-03 23:33 273 2 gusting 6 17.8
2016-May-03 23:18 272 4 gusting 6 17.2
2016-May-03 23:13 245 3 gusting 6 16.7
2016-May-03 23:08 346 5 gusting 8 16.7
2016-May-03 23:03 309 4 gusting 8 16.7
2016-May-03 22:48 011 3 gusting 6 15.6
2016-May-03 22:43 288 4 gusting 6 15.6
2016-May-03 22:38 284 4 gusting 6 15.6
2016-May-03 22:33 316 2 gusting 6 15.0
2016-May-03 22:13 316 4 gusting 6 13.3
2016-May-03 22:08 333 4 gusting 6 13.3
2016-May-03 22:03 293 3 gusting 6 13.3
2016-May-03 21:48 353 2 gusting 5 12.8
2016-May-03 21:43 313 2 gusting 5 12.8
2016-May-03 21:38 306 1 gusting 4 12.8
2016-May-03 21:33 318 1 gusting 4 12.8
2016-May-03 21:18 069 0 gusting 1 12.2
2016-May-03 21:13 032 0 gusting 1 12.2
2016-May-03 21:08 089 1 gusting 2 12.2
2016-May-03 21:03 135 0 gusting 5 12.2
2016-May-03 20:48 302 2 gusting 6 12.2
2016-May-03 20:43 302 2 gusting 6 12.2
2016-May-03 20:38 308 2 gusting 8 12.2
2016-May-03 20:33 302 3 gusting 6 12.2
2016-May-03 20:18 320 3 gusting 6 12.8
2016-May-03 20:08 305 3 gusting 6 12.8
2016-May-03 20:03 308 3 gusting 6 12.8